Regional Weather Roundup
Issued by NWS

Home | Current Version | Previous Version | Text Only | Print | Product List | Glossary Off
Versions: 1 2 3 4 5 6 7 8 9 10 11 12 13 14 15 16 17 18 19 20 21 22 23 24 25 26 27 28 29 30 31 32 33 34 35 36 37 38 39 40 41 42 43 44 45 46 47 48 49 50

000
ASUS43 KOAX 210610
RWRNE

WEATHER ROUNDUP FOR NEBRASKA
NATIONAL WEATHER SERVICE OMAHA NE
100 AM CDT THU AUG 21 2014

NOTES: SATELLITE DATA IS BEING USED TO AUGMENT CLOUD COVER ABOVE
       12000 FEET.
       "FAIR" INDICATES FEW OR NO CLOUDS BELOW 12,000 FEET WITH NO
       SIGNIFICANT WEATHER AND/OR OBSTRUCTIONS TO VISIBILITY.

  * THESE STATIONS DO NOT REPORT WEATHER SUCH AS RAIN...SNOW OR FOG.

NEZ001>004-019>022-054>056-210700-
NEBRASKA PANHANDLE

CITY           SKY/WX    TMP DP  RH WIND       PRES   REMARKS
SCOTTSBLUFF    MOCLDY    72  50  45 SW3       29.91S
6HR MIN TEMP:  72; 6HR MAX TEMP:  91;

ALLIANCE       PTCLDY    73  55  53 SW15      29.88R
6HR MIN TEMP:  66; 6HR MAX TEMP:  91;

CHADRON        CLEAR     65  52  62 CALM      29.84R
6HR MIN TEMP:  63; 6HR MAX TEMP:  92;

KIMBALL        PTCLDY    62  57  84 NW7       29.98R
SIDNEY         LGT RAIN  65  59  81 W9        29.95S
6HR MIN TEMP:  64; 6HR MAX TEMP:  84; 6HR PCP:  0.05;

$$

NEZ057>060-069>072-079>082-210700-
SOUTHWEST NEBRASKA

CITY           SKY/WX    TMP DP  RH WIND       PRES   REMARKS
NORTH PLATTE   CLOUDY    73  60  63 SE9       29.80R
6HR MIN TEMP:  70; 6HR MAX TEMP:  88; 6HR PCP: TRACE;

IMPERIAL       MOCLDY    70  64  81 W9        29.85R
6HR MIN TEMP:  69; 6HR MAX TEMP:  88; 6HR PCP:  0.06;

LEXINGTON      CLOUDY    71  65  81 E6        29.81S
MCCOOK         MOCLDY    75  62  64 E6        29.79F
6HR MIN TEMP:  75; 6HR MAX TEMP:  91;

OGALLALA       PTCLDY    64  60  88 SW5       29.84F
$$

NEZ005>010-023>029-035>040-094-210700-
NORTH CENTRAL NEBRASKA

CITY           SKY/WX    TMP DP  RH WIND       PRES   REMARKS
VALENTINE      PTCLDY    73  60  63 W7        29.76R
6HR MIN TEMP:  72; 6HR MAX TEMP:  89;

AINSWORTH      CLEAR     75  69  81 W6        29.76R
BROKEN BOW     LGT RAIN  76  64  66 S9        29.78S
6HR MIN TEMP:  72; 6HR MAX TEMP:  89; 6HR PCP:  0.05;

O`NEILL        MOCLDY    78  73  87 SE8       29.72F
ORD            MOCLDY    77  70  79 S9        29.76R
6HR MIN TEMP:  77; 6HR MAX TEMP:  88; 6HR PCP: TRACE;

THEDFORD       MOCLDY    74  61  62 SW7       29.80S
$$

NEZ041-046>049-061>064-073>077-083>087-210700-
SOUTH CENTRAL NEBRASKA

CITY           SKY/WX    TMP DP  RH WIND       PRES   REMARKS
GRAND ISLAND   FAIR      81  68  64 S16       29.76F
6HR MIN TEMP:  80; 6HR MAX TEMP:  88;

AURORA         FAIR      79  71  74 SW9       29.78R
HASTINGS       LGT RAIN  78  66  66 S5        29.79S
6HR MIN TEMP:  78; 6HR MAX TEMP:  89; 6HR PCP: TRACE;

HEBRON         FAIR      80  64  59 S10G17    29.78S
HOLDREGE       MOCLDY    77  64  63 NW7       29.82R
KEARNEY *      MOCLDY    75  64  69 SW12G33   29.82R THUNDER
YORK           FAIR      81 N/A N/A S15       29.77S
$$

NEZ011>018-030>034-042>045-210700-
NORTHEAST NEBRASKA

CITY           SKY/WX    TMP DP  RH WIND       PRES   REMARKS
NORFOLK        FAIR      78  69  73 SE9       29.74S
6HR MIN TEMP:  78; 6HR MAX TEMP:  87;

ALBION         FAIR      77  69  74 S7        29.75S
BLAIR          FAIR      80  72  76 S9        29.79R
COLUMBUS *     FAIR      64  64 100 S10G20    29.76S
FREMONT        FAIR      80  71  74 SE10      29.77S
TEKAMAH        FAIR      78  73  84 SE9       29.77R
6HR MIN TEMP:  78; 6HR MAX TEMP:  87;

WAYNE          FAIR      76  73  91 S8        29.76R
$$

NEZ050>053-065>068-078-088>093-210700-
SOUTHEAST NEBRASKA

CITY           SKY/WX    TMP DP  RH WIND       PRES   REMARKS
LINCOLN        FAIR      83  68  60 S16       29.77S
6HR MIN TEMP:  82; 6HR MAX TEMP:  91;

OMAHA EPPLEY   FAIR      80  72  76 S13       29.79R
6HR MIN TEMP:  80; 6HR MAX TEMP:  88;

BEATRICE       FAIR      81  69  67 S14       29.80S
FALLS CITY     FAIR      81  68  64 S12       29.83R
6HR MIN TEMP:  79; 6HR MAX TEMP:  88;

NEBRASKA CITY  FAIR      78  70  76 S13       29.82S
PLATTSMOUTH    FAIR      79  71  76 S10       29.81R
$$

NEZ044-045-051>053-067-210700-
OMAHA AREA

CITY           SKY/WX    TMP DP  RH WIND       PRES   REMARKS
OMAHA EPPLEY   FAIR      80  72  76 S13       29.79R
6HR MIN TEMP:  80; 6HR MAX TEMP:  88;

BLAIR          FAIR      80  72  76 S9        29.79R
FREMONT        FAIR      80  71  74 SE10      29.77S
MILLARD        FAIR      80  73  78 SE8       29.78S
OFFUTT AFB     FAIR      78  77  96 SE9       29.79S
PLATTSMOUTH    FAIR      79  71  76 S10       29.81R
WAHOO          FAIR      77  71  79 SE8       29.77S
$$


USA.gov is the U.S. government's official web portal to all federal, state and local government web resources and services.